Temp
-7 -7 -7 -7 -7 -7 -7 -7 -7 -7 -7 -7 -7 -6 -6 -6 -6 -6 -6 -6 -7 -6 -6 -6 -6 -6 -6 -6 -5 -5 -6 -6 -6 -6 -6 -6 -7 -7 -7 -7 -7 -7 -7
-7 -7 -7 -7 -8 -8 -7 -7 -7 -7 -7 -7 -7 -7 -7 -6 -6 -6 -6 -6 -6 -6 -6 -6 -6 -6 -6 -6 -6 -6 -6 -5 -6 -6 -6 -6 -7 -7 -7 -7 -7 -7 -7
-7 -7 -7 -7 -8 -7 -7 -7 -7 -7 -7 -7 -7 -7 -7 -7 -7 -7 -6 -6 -6 -6 -6 -6 -6 -6 -6 -6 -6 -6 -6 -6 -6 -6 -6 -6 -7 -7 -7 -7 -7 -7 -7
-7 -7 -7 -7 -7 -7 -7 -7 -7 -7 -7 -7 -7 -7 -6 -6 -7 -7 -7 -7 -7 -6 -6 -6 -6 -6 -6 -6 -6 -6 -6 -6 -6 -6 -6 -6 -6 -7 -7 -7 -7 -7 -7
-7 -7 -8 -8 -7 -7 -7 -7 -7 -7 -7 -7 -7 -7 -7 -7 -7 -7 -7 -6 -7 -7 -7 -6 -6 -6 -6 -6 -6 -6 -6 -6 -6 -6 -6 -6 -6 -7 -7 -7 -7 -7 -7
-7 -7 -7 -7 -7 -7 -7 -7 -7 -7 -7 -7 -7 -7 -7 -7 -7 -7 -6 -6 -6 -6 -7 -7 -7 -7 -7 -6 -6 -6 -6 -6 -6 -6 -6 -6 -7 -6 -7 -7 -7 -7 -7
-7 -7 -7 -7 -7 -7 -7 -7 -7 -7 -7 -7 -7 -7 -7 -7 -7 -7 -7 -7 -7 -7 -6 -6 -7 -7 -7 -7 -7 -6 -6 -7 -7 -7 -7 -7 -7 -7 -7 -7 -7 -7 -7
-8 -8 -7 -7 -7 -7 -7 -7 -8 -8 -7 -7 -7 -7 -7 -7 -7 -7 -7 -7 -7 -7 -7 -7 -7 -7 -7 -7 -7 -7 -7 -7 -7 -7 -7 -7 -7 -7 -7 -7 -7 -7 -7
-8 -8 -8 -7 -7 -7 -7 -7 -7 -7 -7 -7 -7 -7 -7 -7 -7 -7 -7 -7 -7 -7 -7 -7 -7 -7 -7 -7 -7 -8 -7 -7 -7 -7 -7 -7 -7 -7 -7 -7 -7 -7 -7
-7 -8 -8 -8 -8 -8 -8 -8 -8 -8 -8 -7 -7 -7 -7 -7 -7 -7 -7 -7 -7 -7 -7 -7 -7 -7 -7 -7 -8 -8 -8 -8 -8 -8 -8 -8 -8 -8 -8 -8 -8 -8 -8
-8 -8 -7 -8 -8 -8 -8 -8 -8 -8 -8 -8 -8 -8 -8 -8 -7 -8 -8 -8 -8 -7 -7 -8 -7 -7 -7 -8 -8 -8 -8 -8 -8 -8 -8 -8 -9 -9 -8 -8 -9 -9 -9
-8 -8 -8 -8 -8 -8 -8 -8 -8 -8 -8 -8 -8 -8 -8 -8 -8 -8 -8 -8 -8 -8 -8 -8 -8 -8 -8 -8 -8 -8 -8 -8 -8 -8 -9 -9 -9 -9 -9 -9 -9 -9 -9
-9 -9 -9 -9 -9 -9 -9 -9 -9 -9 -9 -9 -8 -8 -8 -8 -8 -8 -8 -8 -8 -8 -8 -8 -8 -8 -8 -8 -8 -9 -9 -8 -8 -8 -9 -9 -9 -9 -9 -9 -9 -9 -9
-9 -9 -9 -10 -10 -10 -10 -10 -9 -9 -9 -9 -9 -9 -9 -9 -9 -9 -9 -9 -9 -8 -8 -8 -9 -8 -8 -8 -8 -9 -9 -9 -9 -9 -9 -9 -9 -9 -9 -9 -9 -9 -9
-10 -10 -10 -10 -9 -9 -9 -9 -9 -9 -9 -9 -9 -10 -10 -10 -9 -9 -9 -9 -9 -9 -9 -9 -9 -9 -9 -9 -9 -9 -9 -10 -10 -9 -9 -9 -9 -9 -9 -9 -10 -10 -10
-10 -10 -10 -10 -9 -9 -9 -9 -10 -10 -10 -10 -10 -10 -10 -10 -10 -10 -10 -10 -10 -10 -10 -10 -10 -10 -10 -10 -10 -10 -10 -10 -10 -10 -10 -10 -10 -10 -10 -10 -10 -10 -10
-10 -10 -10 -10 -10 -10 -10 -10 -10 -10 -10 -10 -10 -10 -10 -10 -10 -10 -10 -10 -10 -10 -10 -10 -10 -10 -10 -11 -11 -11 -11 -11 -11 -11 -11 -10 -10 -10 -10 -10 -10 -10 -10
-10 -10 -10 -10 -10 -9 -9 -9 -9 -9 -9 -9 -9 -10 -10 -10 -10 -10 -10 -10 -10 -10 -10 -10 -11 -11 -11 -11 -11 -12 -11 -11 -12 -11 -11 -11 -11 -11 -11 -11 -10 -10 -11
-10 -10 -10 -10 -9 -9 -9 -9 -9 -9 -10 -10 -10 -10 -10 -10 -10 -10 -10 -10 -10 -10 -11 -11 -11 -11 -11 -12 -12 -12 -12 -12 -12 -12 -11 -12 -12 -12 -11 -11 -11 -11 -11
-10 -10 -9 -9 -9 -9 -9 -9 -9 -9 -10 -10 -10 -10 -10 -10 -10 -10 -11 -11 -11 -11 -11 -11 -11 -11 -11 -11 -12 -12 -12 -12 -12 -12 -12 -12 -12 -12 -11 -12 -12 -12 -12
-10 -10 -10 -10 -10 -10 -10 -10 -10 -10 -10 -10 -10 -10 -11 -11 -11 -11 -12 -12 -12 -12 -12 -12 -12 -11 -11 -12 -12 -12 -12 -12 -12 -12 -12 -12 -12 -12 -12 -12 -12 -12 -12
-10 -10 -10 -10 -10 -10 -10 -10 -11 -11 -11 -11 -11 -11 -11 -12 -12 -12 -12 -12 -13 -13 -13 -13 -13 -13 -12 -13 -12 -12 -12 -12 -12 -12 -13 -12 -12 -12 -12 -12 -12 -12 -12
-11 -11 -11 -10 -10 -11 -11 -11 -11 -11 -11 -11 -11 -12 -12 -12 -13 -13 -13 -13 -13 -13 -14 -14 -14 -13 -13 -13 -14 -13 -13 -13 -13 -13 -13 -13 -12 -12 -12 -13 -12 -12 -13
-11 -11 -11 -11 -11 -11 -11 -11 -11 -11 -12 -12 -12 -12 -13 -13 -14 -14 -14 -14 -14 -14 -13 -14 -14 -14 -14 -13 -14 -14 -14 -13 -14 -13 -13 -13 -13 -13 -13 -13 -12 -13 -14
-12 -12 -12 -12 -12 -11 -11 -11 -11 -11 -11 -11 -12 -13 -14 -14 -15 -16 -16 -16 -16 -16 -15 -15 -15 -15 -15 -14 -14 -14 -14 -14 -13 -13 -13 -14 -14 -13 -13 -13 -13 -14 -14
-13 -13 -12 -12 -11 -11 -11 -11 -12 -12 -12 -12 -12 -13 -13 -15 -17 -17 -17 -17 -17 -17 -16 -16 -16 -16 -16 -16 -15 -15 -14 -14 -14 -14 -13 -14 -14 -14 -14 -14 -13 -14 -14
Height
5874 5874 5875 5875 5876 5875 5876 5876 5877 5878 5879 5880 5880 5880 5881 5881 5881 5881 5881 5881 5881 5881 5881 5882 5882 5882 5882 5881 5881 5881 5880 5880 5880 5880 5880 5881 5882 5881 5881 5881 5881 5881 5880
5873 5873 5874 5874 5875 5875 5875 5875 5875 5875 5876 5876 5877 5878 5878 5879 5879 5880 5880 5880 5880 5879 5880 5880 5880 5880 5880 5880 5880 5880 5879 5879 5879 5878 5879 5879 5879 5879 5880 5880 5880 5879 5879
5872 5871 5872 5873 5873 5874 5874 5875 5874 5874 5874 5874 5873 5874 5875 5876 5877 5877 5878 5878 5878 5878 5877 5877 5878 5878 5878 5878 5878 5878 5878 5878 5877 5877 5877 5877 5877 5877 5878 5878 5877 5877 5876
5870 5870 5870 5871 5872 5872 5873 5873 5873 5873 5873 5872 5872 5871 5872 5872 5873 5874 5875 5875 5876 5876 5876 5876 5876 5875 5876 5875 5875 5876 5876 5876 5876 5875 5875 5874 5874 5875 5875 5875 5875 5874 5874
5867 5868 5869 5869 5870 5870 5871 5872 5871 5871 5871 5871 5871 5870 5870 5870 5870 5871 5871 5872 5872 5873 5874 5874 5873 5873 5873 5873 5873 5873 5874 5874 5873 5873 5873 5872 5872 5872 5871 5872 5872 5871 5871
5865 5866 5867 5867 5868 5868 5869 5869 5869 5869 5869 5869 5869 5869 5869 5869 5868 5868 5869 5869 5869 5869 5870 5870 5870 5871 5871 5870 5870 5870 5870 5871 5870 5870 5870 5870 5870 5869 5869 5868 5868 5868 5868
5861 5862 5863 5864 5865 5865 5866 5867 5866 5866 5866 5866 5866 5866 5867 5866 5866 5866 5866 5866 5867 5867 5866 5866 5866 5866 5867 5867 5867 5867 5867 5867 5867 5867 5867 5867 5867 5866 5866 5865 5865 5865 5864
5857 5858 5859 5861 5862 5862 5863 5863 5864 5864 5863 5863 5863 5863 5863 5863 5863 5863 5863 5863 5863 5863 5863 5863 5862 5862 5862 5863 5862 5863 5863 5863 5862 5862 5862 5862 5862 5862 5862 5862 5862 5861 5861
5854 5854 5855 5856 5857 5858 5858 5858 5859 5859 5859 5859 5860 5860 5859 5860 5860 5860 5859 5859 5859 5859 5859 5859 5859 5859 5858 5858 5858 5857 5858 5859 5859 5858 5858 5858 5858 5858 5858 5857 5857 5857 5857
5849 5850 5850 5852 5852 5852 5853 5853 5853 5854 5854 5855 5855 5854 5854 5854 5854 5855 5855 5855 5854 5854 5854 5854 5854 5854 5854 5854 5854 5853 5852 5853 5853 5854 5854 5854 5853 5853 5853 5852 5852 5852 5852
5844 5845 5845 5846 5847 5846 5847 5848 5848 5848 5848 5848 5848 5848 5848 5847 5847 5848 5849 5850 5849 5849 5848 5848 5848 5848 5849 5849 5850 5849 5848 5848 5847 5847 5847 5848 5848 5849 5848 5848 5847 5847 5847
5839 5839 5840 5840 5841 5841 5841 5841 5842 5841 5841 5841 5842 5841 5841 5841 5841 5842 5842 5842 5843 5843 5843 5842 5842 5842 5842 5843 5844 5844 5843 5842 5842 5842 5842 5841 5841 5842 5842 5842 5842 5842 5841
5832 5833 5834 5834 5834 5833 5834 5834 5833 5834 5834 5834 5834 5834 5834 5834 5834 5834 5834 5834 5834 5835 5835 5835 5835 5835 5835 5835 5836 5836 5837 5837 5836 5835 5835 5835 5835 5835 5835 5835 5834 5834 5834
5826 5826 5826 5826 5827 5827 5828 5827 5827 5827 5827 5827 5827 5826 5826 5826 5826 5826 5826 5826 5826 5826 5826 5826 5827 5826 5826 5827 5827 5829 5829 5829 5829 5828 5828 5828 5828 5828 5828 5828 5827 5827 5826
5821 5821 5822 5822 5822 5823 5823 5823 5822 5821 5820 5820 5819 5819 5819 5819 5818 5818 5817 5817 5816 5816 5816 5816 5816 5817 5817 5818 5819 5819 5820 5821 5821 5820 5821 5821 5821 5821 5821 5821 5821 5820 5819
5815 5815 5816 5816 5816 5816 5816 5816 5816 5815 5814 5813 5812 5811 5810 5810 5810 5809 5809 5808 5808 5808 5807 5806 5806 5807 5808 5808 5809 5810 5810 5811 5811 5812 5813 5813 5813 5813 5813 5813 5813 5812 5812
5810 5810 5809 5809 5808 5808 5807 5807 5807 5806 5806 5805 5804 5802 5800 5799 5799 5799 5799 5799 5799 5798 5798 5797 5797 5797 5797 5798 5799 5799 5800 5801 5802 5803 5804 5804 5804 5805 5804 5804 5803 5803 5804
5804 5804 5803 5803 5801 5800 5799 5798 5796 5795 5794 5792 5791 5790 5789 5787 5787 5786 5787 5788 5787 5786 5786 5786 5787 5787 5787 5788 5789 5790 5790 5791 5792 5794 5795 5796 5796 5796 5795 5795 5794 5795 5795
5798 5797 5795 5793 5791 5790 5789 5787 5786 5784 5782 5779 5777 5776 5774 5773 5773 5773 5773 5773 5772 5773 5773 5775 5776 5777 5777 5778 5779 5779 5780 5781 5782 5784 5785 5786 5787 5787 5786 5785 5786 5786 5786
5787 5785 5784 5782 5780 5778 5776 5774 5772 5770 5767 5765 5764 5761 5759 5757 5756 5755 5757 5757 5757 5758 5758 5760 5762 5763 5764 5766 5767 5768 5768 5769 5771 5774 5775 5775 5776 5778 5777 5774 5775 5777 5777
5778 5776 5774 5773 5770 5768 5766 5764 5761 5758 5754 5751 5747 5745 5742 5739 5737 5736 5737 5739 5739 5741 5742 5744 5745 5748 5751 5752 5752 5754 5757 5758 5761 5763 5764 5766 5767 5767 5768 5766 5765 5765 5767
5767 5765 5763 5761 5760 5757 5756 5753 5750 5747 5742 5737 5732 5728 5725 5722 5719 5717 5718 5720 5720 5723 5727 5728 5729 5733 5736 5737 5738 5738 5742 5746 5749 5751 5753 5756 5755 5756 5757 5756 5754 5756 5757
5755 5754 5752 5750 5748 5745 5743 5741 5738 5735 5730 5725 5719 5714 5707 5702 5698 5695 5694 5697 5699 5702 5708 5711 5714 5717 5723 5724 5724 5723 5727 5732 5736 5739 5742 5743 5745 5745 5745 5745 5745 5747 5748
5744 5742 5739 5737 5736 5734 5733 5731 5728 5724 5720 5715 5708 5700 5692 5683 5677 5672 5672 5674 5677 5681 5687 5692 5696 5701 5703 5708 5710 5713 5716 5719 5723 5727 5729 5732 5734 5735 5734 5733 5734 5734 5735
5734 5732 5729 5727 5726 5726 5725 5722 5718 5715 5709 5703 5694 5685 5673 5664 5657 5652 5651 5652 5657 5661 5667 5673 5677 5682 5687 5692 5696 5700 5701 5705 5709 5713 5718 5719 5721 5723 5724 5723 5722 5722 5722
5726 5724 5722 5720 5719 5718 5716 5713 5711 5706 5699 5692 5684 5672 5659 5647 5640 5634 5629 5631 5637 5645 5651 5656 5661 5666 5670 5674 5680 5686 5689 5694 5699 5702 5707 5707 5708 5710 5711 5711 5710 5709 5709
Wind_Speed
3 3 3 3 4 4 8 13 14 14 13 13 10 10 9 8 6 5 4 4 6 6 4 5 5 5 5 6 6 7 7 8 9 10 11 9 8 7 6 4 4 4 3
5 5 3 4 4 4 3 4 7 10 13 17 17 15 13 12 10 9 8 7 6 7 9 7 6 6 6 7 7 7 8 8 7 9 10 10 10 9 8 7 5 4 4
9 8 6 5 5 6 6 7 7 7 7 8 12 16 19 18 16 14 12 12 11 10 9 10 10 8 8 8 9 9 9 9 8 8 9 10 11 11 11 10 9 8 7
11 11 11 9 8 9 9 9 9 10 10 8 7 7 10 15 19 20 19 17 16 15 14 13 12 13 12 11 10 10 11 11 11 10 10 10 10 11 12 12 12 11 11
15 14 13 12 12 12 13 13 13 12 12 11 10 8 8 8 8 10 15 19 22 21 19 17 16 15 14 16 15 13 12 12 14 14 13 12 12 12 13 13 14 13 13
19 19 18 15 14 15 16 17 16 16 14 13 12 12 12 12 11 11 11 11 12 15 20 22 21 19 18 18 18 18 17 14 15 16 17 16 15 15 15 15 15 15 15
22 22 21 20 18 17 18 19 19 19 18 17 16 15 15 14 15 15 15 15 14 14 15 16 21 24 24 22 22 21 20 20 18 16 17 19 19 18 18 18 18 18 18
25 25 24 24 22 21 23 23 23 22 23 22 21 21 20 19 18 18 19 19 19 18 17 18 18 16 21 25 26 26 25 24 23 22 21 19 19 20 20 21 21 21 21
28 27 27 27 25 25 24 25 24 26 27 27 27 27 26 26 25 24 23 23 22 22 22 21 21 21 20 20 22 26 27 28 28 27 26 25 24 24 23 22 21 22 23
31 31 30 30 29 28 27 25 26 26 27 28 29 30 31 30 30 29 28 27 27 26 26 26 25 23 23 22 22 24 27 27 29 30 30 29 28 28 26 26 25 25 24
33 33 34 34 33 33 31 30 30 31 31 31 30 30 31 34 34 33 32 32 31 31 31 30 30 28 27 26 24 24 27 28 28 30 32 32 32 32 31 30 29 28 27
36 36 36 35 35 34 35 35 35 35 34 34 34 34 34 34 35 35 35 35 35 35 34 34 34 33 31 30 28 28 28 28 29 30 31 32 33 33 33 33 33 33 32
32 32 31 31 32 32 32 32 34 34 35 36 37 38 39 38 38 38 37 37 37 37 36 36 37 37 37 35 33 30 30 30 31 31 30 31 33 35 35 35 35 35 35
20 21 21 22 23 24 25 27 29 30 30 30 31 33 35 37 39 41 41 40 40 40 40 39 39 39 40 39 38 37 34 33 33 33 32 32 32 31 31 33 34 35 36
23 24 25 26 27 29 30 32 33 33 34 35 35 35 36 35 35 36 37 39 41 43 43 44 43 43 42 42 42 40 39 38 37 37 36 35 33 32 32 33 33 33 33
28 29 30 32 33 34 34 35 35 35 35 36 37 39 40 40 41 41 40 40 40 40 40 43 44 44 45 44 44 43 43 41 39 37 37 37 36 35 34 34 34 35 34
30 31 31 33 34 36 37 38 39 40 41 42 43 45 46 47 46 46 46 44 44 44 44 42 42 43 43 42 42 42 43 43 42 40 38 38 39 38 37 37 36 36 35
31 33 35 36 39 41 42 44 46 48 50 51 52 52 52 52 51 51 51 50 49 49 49 48 46 45 44 43 43 44 45 45 45 44 41 40 40 40 41 42 42 40 36
37 39 41 43 45 46 48 50 51 52 54 56 58 59 59 59 58 57 57 57 57 55 54 52 50 49 49 47 46 48 49 48 48 46 45 43 41 41 43 44 41 38 37
42 44 45 47 50 51 53 54 55 56 57 58 60 62 65 66 65 65 63 62 62 61 60 57 55 54 53 51 52 52 51 50 48 48 46 44 41 41 40 35 40 42 42
46 46 48 48 50 50 50 51 53 55 58 61 64 67 68 70 71 70 70 67 65 64 63 62 60 58 57 55 55 56 53 52 48 47 44 43 43 43 45 56 47 40 44
47 47 47 46 45 48 52 54 56 56 56 59 63 67 71 74 76 77 77 74 71 67 65 66 65 62 59 59 58 59 58 55 52 49 46 46 47 48 48 45 37 44 45
44 44 47 49 50 50 49 39 37 41 45 50 54 58 64 69 71 73 74 75 76 76 70 66 65 65 63 62 61 63 60 56 54 52 50 49 50 49 46 47 51 52 43
49 49 48 46 45 34 29 29 30 36 41 48 53 55 61 65 67 69 72 73 72 69 69 65 66 67 65 66 64 62 62 59 55 54 54 53 52 51 51 52 51 50 44
47 45 41 33 30 28 30 28 34 41 42 44 47 54 57 63 69 70 69 66 66 66 67 63 61 63 67 67 65 65 62 60 59 57 54 54 55 54 55 53 50 47 48
29 30 30 29 28 29 32 37 39 38 41 42 47 48 48 48 45 47 55 71 65 60 59 59 59 58 61 65 66 65 64 61 58 56 46 57 53 52 53 55 56 52 52
Wind_Direction
266 308 320 318 343 304 271 266 271 271 268 268 266 269 273 277 286 301 315 298 282 287 288 280 278 285 300 314 322 325 308 284 271 263 270 277 283 291 294 310 344 2 9
269 282 281 299 314 331 327 322 306 287 280 271 267 263 266 270 271 274 280 286 293 281 276 279 288 288 284 287 294 308 315 315 304 288 279 276 273 271 272 271 280 297 310
262 262 264 267 288 296 296 298 304 308 311 302 281 267 261 262 267 268 268 272 274 275 277 267 268 276 281 283 281 282 290 301 302 287 280 280 278 277 274 271 267 265 267
260 261 261 263 269 274 279 283 287 292 295 300 313 307 281 269 265 265 269 270 271 272 271 272 273 266 266 272 276 280 279 283 286 287 283 278 275 275 275 273 270 269 270
265 261 260 263 267 272 275 276 277 279 286 288 285 289 298 302 301 285 276 273 271 271 271 269 267 266 267 265 266 272 274 274 275 278 279 279 277 273 273 273 271 269 269
275 271 267 263 264 268 270 274 274 277 279 282 281 282 284 287 289 290 292 297 297 285 271 267 269 271 270 264 266 264 268 274 273 273 275 275 275 275 275 274 273 274 274
275 272 271 270 264 261 263 268 271 274 274 273 274 276 277 280 283 284 283 282 284 286 286 282 268 264 266 271 270 265 263 263 266 272 272 273 274 275 275 275 276 276 276
276 276 277 276 273 268 265 266 267 269 273 276 276 275 274 273 274 277 280 283 283 281 283 284 281 279 272 267 269 272 270 264 261 261 264 267 270 272 274 274 274 275 276
276 275 276 274 273 273 271 271 268 269 269 269 269 271 272 273 274 274 275 276 279 282 281 280 279 279 271 267 267 269 269 271 269 266 263 263 264 266 269 273 276 278 280
276 276 278 278 276 273 271 267 268 271 271 269 267 267 268 269 269 270 271 273 276 276 278 280 279 277 277 276 275 273 271 268 269 271 271 269 269 269 269 268 269 270 272
276 275 276 276 275 277 276 274 270 270 269 271 273 272 271 270 270 270 268 268 269 272 273 273 275 277 275 272 271 273 275 273 268 267 268 270 273 273 272 271 271 270 271
275 274 276 277 278 279 279 278 276 275 274 273 271 271 273 272 273 273 273 273 270 268 268 270 270 270 270 272 272 268 270 274 275 271 268 267 267 269 271 272 275 277 277
276 277 276 276 277 278 279 278 277 276 275 275 275 274 274 274 273 272 272 271 271 272 270 267 268 269 269 269 269 269 269 271 274 274 270 270 270 269 268 269 272 276 278
271 270 268 266 267 271 274 276 278 279 279 279 277 275 274 273 272 272 272 270 269 269 269 269 268 268 269 270 270 269 266 266 268 270 272 273 273 273 274 274 274 274 275
270 270 272 274 277 280 281 281 280 280 280 281 281 280 279 277 275 274 274 272 268 264 263 264 265 266 267 269 270 269 266 263 262 263 267 269 270 270 274 276 276 277 277
279 281 282 283 284 283 283 281 280 279 280 281 282 282 281 280 278 276 274 271 271 270 267 265 263 265 267 267 268 269 267 267 264 262 264 265 266 270 272 274 276 278 277
279 282 284 286 287 288 287 286 283 280 279 278 279 279 280 280 277 275 274 273 273 271 269 267 266 266 265 266 268 267 266 266 265 263 261 264 266 267 269 270 272 274 277
279 282 284 286 287 288 287 286 286 284 283 281 278 277 276 275 275 274 274 273 270 270 270 269 267 266 265 266 267 268 267 266 266 265 266 265 265 267 267 268 269 272 275
283 284 286 287 286 285 284 283 282 280 280 280 279 278 277 275 273 271 270 269 269 267 267 267 267 266 265 263 262 265 268 268 268 267 268 268 269 270 270 270 270 273 271
287 287 286 286 286 286 285 285 285 284 283 281 278 277 276 274 272 270 266 265 264 264 263 262 261 262 263 263 262 262 263 266 267 268 269 270 269 269 267 256 271 273 269
283 283 282 281 280 281 281 281 281 281 281 279 278 277 275 273 271 269 266 264 261 258 258 258 256 257 260 259 260 261 262 263 265 266 267 269 266 265 266 273 267 267 271
280 280 280 281 282 282 281 281 282 283 285 284 283 281 278 275 273 271 269 266 264 261 257 256 255 253 254 255 255 257 259 258 261 262 263 264 264 263 265 266 262 271 275
281 281 282 282 282 282 285 288 287 293 295 292 289 287 282 277 273 269 266 265 263 262 259 256 255 255 253 255 255 256 256 257 255 258 260 261 262 264 264 265 267 268 272
284 284 285 285 285 284 288 293 298 299 298 299 294 293 289 281 276 269 266 263 260 256 254 255 254 254 252 252 254 257 258 258 257 256 258 260 261 262 264 263 263 262 269
289 289 288 282 280 288 284 285 290 300 301 300 300 298 293 283 277 272 267 262 258 255 254 251 250 250 251 252 252 254 256 257 259 259 261 261 260 262 264 265 266 264 270
289 288 282 281 278 277 279 285 297 303 303 303 307 308 308 297 291 287 275 259 255 254 250 249 251 250 248 247 249 252 254 256 257 260 265 265 261 264 261 263 263 262 271